This is the latest recevied weather packets stored in our database for station/object KB0Y. If no packets are shown the sender has not sent any weather packets the latest 10 day(s).
| Time | Temp. | Humidity | Pressure | Rain* | Wind** | Luminosity | Snow |
|---|---|---|---|---|---|---|---|
| 1778197170 | 25° C | 99% | 1016.2 hPa | 0 mm | - | 21 W/m² | - |
| 1778196867 | 25° C | 99% | 1016.2 hPa | 0 mm | - | 38 W/m² | - |
| 1778196565 | 25° C | 99% | 1016.2 hPa | 0 mm | - | 66 W/m² | - |
| 1778196261 | 25° C | 99% | 1015.9 hPa | 0 mm | - | 98 W/m² | - |
| 1778195958 | 25° C | 99% | 1016.2 hPa | 0 mm | - | 154 W/m² | - |
| 1778195655 | 25° C | 99% | 1016.2 hPa | 0 mm | - | 142 W/m² | - |
| 1778195351 | 25° C | 99% | 1016.2 hPa | 0 mm | - | 90 W/m² | - |
| 1778195049 | 25° C | 98% | 1016.6 hPa | 0 mm | - | 115 W/m² | - |
| 1778194749 | 25° C | 98% | 1016.6 hPa | 0 mm | - | 115 W/m² | - |
| 1778194445 | 25° C | 98% | 1016.9 hPa | 0 mm | - | 76 W/m² | - |
| 1778194141 | 25° C | 98% | 1016.9 hPa | 0 mm | - | 82 W/m² | - |
| 1778193838 | 25° C | 98% | 1016.9 hPa | 0 mm | - | 158 W/m² | - |
| 1778193534 | 25° C | 98% | 1016.6 hPa | 0 mm | - | 119 W/m² | - |
| 1778193231 | 25° C | 98% | 1016.6 hPa | 0 mm | - | 123 W/m² | - |
| 1778192928 | 25° C | 98% | 1016.9 hPa | 0 mm | - | 100 W/m² | - |
| 1778192624 | 25° C | 98% | 1016.6 hPa | 0 mm | - | 113 W/m² | - |
| 1778192321 | 25° C | 98% | 1016.6 hPa | 0 mm | - | 123 W/m² | - |
| 1778192018 | 25° C | 97% | 1016.9 hPa | 0 mm | - | 94 W/m² | - |
| 1778191713 | 25° C | 97% | 1016.6 hPa | 0 mm | - | 80 W/m² | - |
| 1778191412 | - | - | - | 0 mm | - | - | - |
| 1778191108 | 25° C | 97% | 1016.6 hPa | 0 mm | - | 82 W/m² | - |
| 1778190805 | 25° C | 97% | 1016.6 hPa | 0 mm | - | 82 W/m² | - |
| 1778190502 | 25° C | 97% | 1016.6 hPa | 0 mm | - | 115 W/m² | - |
| 1778190200 | 25° C | 97% | 1016.6 hPa | 0 mm | - | 131 W/m² | - |
| 1778189894 | 25° C | 97% | 1016.6 hPa | 0 mm | - | 152 W/m² | - |
* Rain latest hour (hover to see other rain measurements)
** Current wind speed in m/s (hover to see current wind gust speed)